Showing default

KUIPER-00025, 63739

Orbit data source: Space-Track

KUIPER-00025, 63739 is a payload satellite owned by Kuiper Systems (US) in LEO that was launched on Mon, 28 Apr 2025 UTC via an ATLAS V 551 launch vehicle from the Air Force Eastern Test Range (AFETR). Payload-class satellites include a variety of spacecraft equipped with specific instruments for various scientific and technological missions. These include communications satellites like Starlink; space stations such as the ISS; scientific satellites like the Hubble; Earth observation satellites from companies like Planet Labs, Umbra, and HawkEye 360; GPS; miniature CubeSats for education and research; and military/defense satellites.

Loading next visibility...
Identifier
63739, 2025-088R
Orbit
LEO
Country
Flag of USUS
Related business
Manufacturer
Kuiper Systems
Mission
Operational Commercial Communications
Bus & Motor
KUIPER, Unknown motor
Mass
~490 kg wet, ~490 kg dry
Launch date (UTC)
2025-04-28 (8 months ago)
Launch vehicle
ATLAS V 551
Launch site
Air Force Eastern Test Range (AFETR)
Object type
Payload
Rocket body
Debris
Shape & HBR
Box + 2 Pan, 3.4 m
Radar Cross Section
2.326 m², Large (>1 m²)

Expand to show TLE details & history
Last TLE update: 18 hours ago

TLE from 18 hours ago
0 KUIPER-00025
1 63739U 25088R   25348.91668981 -.00000068  00000-0  21236-4 0  9994
2 63739  51.8995 116.3907 0010206 147.1341 325.4954 14.76674076  5683
Epoch: 2025-12-14T22:00Z
TLE epoch observation values (Epoch: 2025-12-14T22:00:01.999Z)
Latitude
46.75423°
Longitude
-173.45123°
Altitude
638.908 km
Speed
7.548 km/s
True Right ascension
16h 01m 31s
True Declination
46° 34' 47"
Sunlit
Object was in daylight at epoch
Visualization orbit readout
Latitude
Unknown
Longitude
Unknown
Altitude
Unknown
Speed
Unknown
Apparent Right ascension
Unknown
Apparent Declination
Unknown
Sunlit
N/A
Visualization observer readout
Local Sidereal Time
15:07:28
Azimuth
Unknown
Elevation
Unknown
Doppler factor
Unknown
Orbital elements
Apogee altitude
647.456 km
Perigee altitude
633.13 km
Semi-major axis
7,018.43 km
Eccentricity
0.00102
Inclination
51.8995°
RAAN
116.3907°
Arg. of periapsis
147.1341°
True anomaly
325.42908°
Mean anomaly
325.4954°
Eccentric anomaly
325.46225°
Mean motion
3.69133 °/min
Orbital period
97.53 mins
BSTAR
0.000021236
Loading maneuver chart data...
Computing Atmospheric mass density...
Loading historical data...
Loading historical data...
Loading historical data...
Loading historical data...
Loading historical data...
Loading historical data...
Loading historical data...

Documentation

Showing up to 5 results
|